User: anonymous   Login
Location: Indian Hills
(32.9760°N, 85.9450°W)
Time: 08:13:34
(UTC+00:00)
Language:

Cosmos 1862 Rocket - Orbit

View from above orbital plane
View from above orbital plane
View from above satellite
View from above satellite

Ground track
Ground track

The orbit data is extracted from the following two-line orbital elements,

1 18153U 87055B   20050.12320015  .00000076  00000-0  62226-5 0  9990
2 18153  82.4980 267.2187 0023061 104.1812 256.1967 14.83278446763170
Epoch (UTC): 19 February 2020 02:57:24
Eccentricity: 0.0023061
inclination: 82.4980°
perigee height: 603 km
apogee height: 635 km
right ascension of ascending node: 267.2187°
argument of perigee: 104.1812°
revolutions per day: 14.83278446
mean anomaly at epoch: 256.1967°
orbit number at epoch: 76317

The dashed part of the orbit path shows where the satellite is in the earth's shadow,  

DLR